Theta_e
334 333 335 336 336 335 334 336 337 337 336 336 335 335 334 333 334 334 333 332 332 332 332 332 332 331 330 330 331 331 331 330 330 330 330 330 329 329 328 328 329 331
332 332 335 336 335 335 335 334 336 337 337 336 336 336 335 334 334 334 333 333 332 333 332 332 332 331 330 330 330 331 330 329 330 331 331 331 329 328 328 329 330 331
331 333 336 336 336 336 335 333 334 335 336 336 336 335 335 334 333 333 332 333 333 333 333 332 332 331 330 330 329 329 329 329 329 330 330 329 328 328 329 330 331 331
332 333 335 336 336 336 335 335 334 334 333 334 335 335 335 333 332 331 331 332 333 333 333 332 332 330 330 330 329 329 328 328 329 328 328 328 328 328 329 330 329 330
331 333 336 336 335 335 335 336 336 334 333 333 335 335 335 334 333 331 330 330 331 332 332 333 333 331 330 330 329 329 329 328 329 329 328 328 327 328 328 329 328 329
330 334 336 336 335 335 335 337 337 336 334 334 335 335 335 335 334 332 330 329 330 331 332 332 331 330 331 331 330 330 330 330 330 329 328 327 327 327 327 328 329 330
333 336 337 336 335 335 336 336 336 336 335 335 334 335 335 334 334 333 331 330 330 331 331 331 330 329 330 331 330 330 330 329 330 329 329 329 329 329 330 330 331 331
336 336 336 336 336 335 335 336 336 336 335 335 334 334 335 334 335 334 332 331 331 332 331 331 331 330 331 331 330 329 328 328 328 329 330 330 331 332 332 331 331 331
336 336 335 334 335 334 335 335 336 335 335 334 334 335 335 334 334 334 334 333 333 333 333 331 330 331 331 330 329 329 329 328 327 329 330 330 331 332 332 332 332 332
335 334 333 333 333 333 334 335 336 335 335 334 334 335 335 334 334 334 335 335 334 334 334 333 332 332 332 329 329 329 329 328 328 329 330 330 331 332 332 332 332 332
335 334 333 332 333 332 332 333 334 335 334 334 335 335 335 334 334 335 336 336 336 334 335 335 334 333 332 329 329 329 327 326 327 329 330 330 332 333 332 332 332 331
335 334 334 333 332 330 331 332 332 333 334 333 333 334 335 334 334 334 335 336 336 335 335 335 334 334 333 331 330 328 325 326 327 330 332 332 332 333 333 333 333 331
336 335 335 334 333 333 333 333 332 332 333 333 333 333 334 335 335 334 334 335 336 336 336 335 335 333 333 332 331 329 328 328 330 331 333 332 331 331 331 333 333 333
334 335 335 334 334 334 333 333 332 332 332 333 333 333 333 333 334 334 334 334 335 336 336 336 335 333 332 331 331 331 330 330 331 331 332 333 331 329 329 331 333 332
332 332 334 334 334 334 333 333 333 333 332 332 332 332 332 332 332 332 333 333 333 335 336 335 334 334 333 331 330 331 331 329 329 330 331 333 334 333 330 331 333 334
329 330 331 332 333 334 333 333 334 333 333 332 331 330 331 332 333 332 332 331 331 332 334 334 334 333 332 329 328 330 331 330 329 329 329 332 335 336 335 334 334 335
327 328 328 328 330 331 332 333 333 334 334 334 333 332 330 330 332 333 333 332 330 330 331 331 330 330 329 327 326 326 329 330 330 328 327 329 332 335 336 336 336 337
324 326 327 326 327 329 331 331 332 332 333 334 335 334 333 331 331 331 333 333 332 331 330 329 328 327 327 326 325 324 325 327 329 330 329 328 329 332 335 336 336 336
320 322 325 326 326 328 329 330 331 331 332 333 334 334 334 334 334 332 332 332 332 332 332 332 330 328 326 325 324 324 324 325 327 331 333 331 329 330 333 335 336 336
316 319 320 323 325 326 326 328 328 330 331 332 333 333 333 334 334 334 333 333 331 331 332 333 333 332 330 327 326 326 326 326 326 329 334 335 333 331 330 332 334 334
312 314 315 318 321 323 325 326 327 328 329 329 330 332 333 332 333 333 334 334 333 333 332 332 333 333 332 329 328 327 327 328 328 328 331 335 336 334 331 329 330 331
309 309 310 312 316 318 320 322 323 325 326 327 328 329 330 331 331 332 333 333 333 334 334 333 333 333 332 330 329 328 328 329 329 329 329 331 334 336 334 332 330 329
308 307 307 308 309 312 313 314 315 317 319 322 325 326 327 328 329 330 331 331 332 333 333 333 333 333 333 332 332 332 330 329 329 330 329 329 331 334 335 334 332 329
307 306 305 305 305 306 307 308 308 309 310 313 317 320 322 323 325 327 328 329 330 331 332 332 332 333 333 333 334 334 333 332 331 330 331 331 331 333 335 335 333 330
307 306 304 304 304 303 304 304 304 305 306 307 311 315 316 317 319 323 325 327 328 329 330 330 332 332 332 332 333 334 334 334 334 333 333 333 334 334 334 333 332 330
307 307 306 305 305 304 303 303 303 303 303 305 309 314 315 313 312 313 316 320 322 324 325 327 329 331 331 331 332 332 333 334 334 334 334 334 335 336 335 334 332 330
Wind_Speed
20 20 17 15 15 15 15 16 15 15 16 18 20 21 22 22 22 21 21 22 23 24 25 24 23 22 19 17 16 16 14 15 16 16 16 16 16 17 18 17 16 15
20 20 17 15 16 16 15 17 18 16 15 15 16 18 20 21 21 21 21 22 23 24 25 25 23 22 20 19 19 17 16 16 16 15 15 16 17 17 16 15 14 14
20 19 17 17 17 15 15 17 19 19 17 16 15 16 19 20 20 20 21 21 21 22 23 24 23 22 21 20 20 19 17 16 15 14 14 16 17 16 14 13 13 14
20 19 18 18 16 15 15 16 18 20 20 18 17 16 17 19 20 21 21 21 20 20 21 21 20 21 20 20 20 19 18 17 15 15 15 16 16 15 14 13 13 14
23 21 19 17 16 15 16 16 16 18 19 19 18 16 16 17 19 21 22 22 21 20 19 19 19 20 19 19 19 18 17 17 16 16 16 17 17 16 15 13 13 14
26 22 20 19 17 16 16 16 15 15 16 17 17 17 16 16 18 20 22 23 22 21 21 20 20 20 19 18 18 17 17 17 17 16 17 17 16 15 14 13 13 14
25 22 22 20 17 17 17 16 15 14 14 15 15 16 16 16 17 20 22 23 22 22 21 21 20 20 19 18 18 19 19 18 16 15 15 15 14 14 13 13 13 14
24 22 21 20 19 19 18 17 15 15 14 14 14 15 15 16 17 19 22 23 22 22 21 20 19 19 19 18 18 19 19 18 16 15 14 13 13 13 13 13 14 14
23 20 18 19 20 21 19 17 16 15 15 15 14 14 14 15 17 19 21 21 21 21 20 19 18 18 19 19 18 19 19 18 16 15 15 14 13 13 12 13 14 14
21 18 16 17 18 20 21 19 17 17 17 16 15 14 14 14 16 18 19 19 20 20 19 19 19 19 19 19 19 18 18 17 16 15 15 15 14 13 13 13 13 13
17 15 14 14 15 18 21 21 19 19 21 20 18 16 16 15 15 17 18 18 20 20 19 19 19 19 19 19 18 17 17 17 17 16 15 15 15 14 13 13 13 13
14 13 12 13 15 17 18 19 19 19 20 21 21 18 17 16 15 15 17 18 19 19 19 19 19 19 18 18 18 17 17 17 17 16 15 15 15 15 14 13 13 13
11 12 12 12 14 15 14 14 16 18 17 18 20 19 17 16 16 15 16 17 18 19 19 19 19 19 19 18 18 17 17 17 16 16 15 14 15 16 15 14 13 13
4 6 7 9 12 13 14 15 16 17 16 15 16 19 18 17 17 17 16 16 17 18 18 19 20 20 20 19 18 18 17 17 16 15 15 14 14 14 15 15 15 15
1 2 3 5 6 8 12 14 14 15 16 16 17 18 19 18 17 18 18 18 18 17 17 19 20 19 19 20 19 18 17 17 16 15 15 14 12 12 14 15 16 15
3 1 1 2 3 4 6 9 11 13 15 16 17 18 19 19 18 18 18 19 19 19 19 19 20 20 21 21 20 19 17 16 16 15 15 14 13 12 13 14 15 15
3 1 1 1 2 3 4 5 8 11 13 15 16 17 19 20 19 18 17 19 20 20 20 21 21 22 23 23 23 21 18 16 16 16 16 16 16 14 13 14 15 15
3 1 1 0 1 1 3 3 4 6 9 12 14 16 17 19 20 20 18 18 19 20 20 21 23 24 25 24 23 22 20 18 17 16 17 18 18 16 15 15 15 15
5 3 0 1 1 1 2 3 3 3 4 6 9 12 14 15 18 20 20 20 20 21 20 20 22 24 26 25 24 23 23 22 20 17 16 18 19 18 17 16 16 15
5 4 2 1 2 3 3 3 3 2 2 4 5 7 10 12 13 16 18 19 20 21 21 21 22 23 25 25 24 24 24 23 22 20 17 17 18 19 18 18 18 18
7 5 4 2 2 3 5 4 3 3 3 3 4 4 6 8 9 11 14 16 18 19 20 21 21 22 23 23 24 24 24 24 24 23 21 19 18 19 20 20 20 20
9 5 3 4 4 4 4 5 4 4 4 3 3 4 4 4 5 7 9 11 13 15 16 18 19 20 22 23 23 24 25 25 26 25 25 23 21 20 20 21 21 22
15 9 5 3 4 4 4 5 4 5 5 5 4 3 3 4 4 5 6 7 9 10 12 14 16 17 19 21 23 25 26 27 27 27 27 26 25 22 21 21 22 23
14 13 9 5 4 4 4 4 4 3 3 4 4 4 3 4 4 4 5 6 6 8 9 11 12 13 15 17 20 24 26 26 26 26 26 26 25 24 23 22 24 25
8 8 9 7 5 4 4 4 4 3 2 2 3 3 2 2 2 3 4 5 5 7 8 8 8 9 11 13 16 21 25 25 24 23 23 24 24 23 24 25 26 26
10 8 7 7 6 5 4 4 4 4 2 2 3 3 1 1 1 2 4 5 5 6 7 7 6 7 10 11 13 16 21 23 23 22 22 22 22 22 22 24 27 28
Wind_Direction
211 211 210 208 207 208 208 206 210 215 217 216 215 216 215 213 213 214 212 209 209 209 209 210 211 209 210 215 220 222 217 213 216 218 217 220 225 229 232 232 233 235
211 211 207 206 208 208 206 204 204 208 215 216 216 217 214 214 216 214 209 208 208 208 209 209 208 208 209 212 214 214 214 211 212 214 215 218 223 227 230 230 228 229
212 210 207 207 207 205 205 206 206 205 207 211 215 217 215 216 215 210 206 205 204 205 207 207 207 206 207 210 212 212 213 212 210 212 213 217 220 224 228 226 224 226
212 209 209 210 208 204 204 206 207 207 206 207 212 215 216 216 213 208 204 202 202 204 205 206 207 207 207 208 211 213 212 210 209 209 211 214 217 219 223 223 223 226
216 211 210 210 207 205 205 205 206 208 207 204 206 209 212 212 211 208 204 201 202 203 203 203 205 208 208 207 210 212 211 209 207 206 208 211 214 218 222 224 224 226
217 211 211 209 206 204 205 205 204 205 205 203 203 206 207 209 210 208 205 203 203 203 202 203 207 211 210 207 208 210 209 208 206 206 209 211 215 222 225 225 223 225
215 211 210 207 205 205 205 205 205 204 205 204 204 205 207 207 208 207 205 204 204 204 205 207 210 211 209 207 207 208 208 209 208 210 212 214 217 222 224 221 220 221
213 212 209 204 204 206 204 203 206 205 204 206 206 205 207 208 207 206 207 205 203 205 209 210 208 206 207 207 206 207 209 211 214 215 214 214 215 218 222 221 220 219
214 214 207 204 206 206 204 202 203 204 204 206 207 205 206 210 210 207 207 206 204 204 206 207 205 202 205 207 207 209 211 213 217 217 214 214 215 218 221 224 223 220
214 212 205 203 205 207 207 203 199 201 202 202 204 206 206 208 210 208 206 205 203 201 201 202 203 204 206 210 213 214 213 213 216 217 216 216 218 221 222 223 225 221
214 208 203 204 208 212 214 211 206 202 201 198 198 203 204 205 207 205 204 203 203 201 201 202 203 205 209 213 216 216 215 215 217 218 219 219 220 222 222 222 224 222
216 213 210 211 218 219 215 214 215 212 207 202 200 200 200 201 205 206 204 203 204 204 204 205 206 206 209 212 213 215 215 217 219 218 218 220 220 220 219 221 223 222
214 216 214 214 221 220 210 208 213 217 216 211 208 208 203 199 201 206 208 207 207 208 208 208 208 208 207 207 210 215 215 216 219 219 217 219 221 220 218 220 222 221
209 209 211 215 219 218 216 217 215 213 214 216 215 213 211 208 204 203 207 210 211 211 211 211 211 210 210 210 212 216 217 217 217 218 218 220 225 222 217 219 224 224
281 199 190 205 211 212 217 222 220 215 213 214 217 216 213 212 211 207 206 210 213 211 212 213 212 210 211 214 216 216 219 222 223 222 220 220 222 222 218 221 225 225
314 300 197 183 188 195 208 218 223 225 221 216 217 220 218 213 212 212 211 212 214 214 212 212 212 211 213 216 217 215 217 224 228 231 231 225 219 216 218 223 225 225
318 328 341 258 216 192 195 208 219 226 227 221 217 216 219 218 213 211 213 215 217 219 218 216 215 216 217 218 219 218 218 222 228 234 238 236 226 216 216 223 226 227
315 311 95 351 292 185 178 182 198 217 223 223 220 215 216 220 218 213 213 214 215 219 221 222 221 222 223 222 222 223 224 225 227 231 236 240 235 222 214 220 228 228
302 296 176 123 134 149 151 160 172 193 206 212 220 221 218 220 220 216 215 215 215 216 219 222 226 228 229 227 224 225 227 227 226 226 228 235 239 232 218 215 222 226
275 273 258 172 149 142 130 137 156 160 169 184 201 218 221 222 223 219 217 217 217 216 218 221 224 230 234 231 227 226 227 227 225 223 223 228 235 238 232 224 222 224
256 246 240 216 197 165 141 135 142 153 165 174 176 189 205 215 220 220 220 222 220 218 219 220 221 226 232 230 226 225 226 226 225 222 222 224 227 233 237 237 234 231
255 244 234 209 203 193 165 157 159 168 177 174 174 180 183 191 201 207 214 220 220 219 222 224 223 226 230 226 221 221 224 225 225 224 224 225 225 227 231 236 239 238
252 252 248 209 187 187 184 181 177 178 180 173 168 178 185 193 198 200 205 211 215 217 221 223 224 229 233 228 220 219 221 224 226 226 226 226 227 227 228 231 235 238
243 244 237 219 196 190 184 184 178 169 169 162 156 163 182 199 210 217 217 211 212 219 221 220 220 227 236 234 225 221 221 223 225 227 227 227 227 227 227 229 233 236
201 215 214 204 199 192 176 175 173 168 160 122 116 122 138 167 189 216 227 223 219 223 225 220 216 224 236 237 231 225 223 222 223 225 227 227 226 226 227 229 233 235
181 181 182 181 184 180 167 160 150 151 164 121 98 98 116 159 220 218 218 229 240 245 242 231 218 225 234 233 229 229 228 224 222 222 224 226 226 226 227 229 233 236